Weather History for 67775 - March, 2014

Change the Weather History Date:

Tuesday, March 11, 2014

  Actual Average Record
Temperature  
Mean Temperature 73 °F -  
Max Temperature 82 °F 79 °F - ()
Min Temperature 64 °F 57 °F - ()
Cooling Degree Days 8    
Growing Degree Days 23 (Base 50)    
Moisture  
Dew Point 61 °F    
Average Humidity 69    
Maximum Humidity 100    
Minimum Humidity 38    
Precipitation  
Precipitation 0.00 in 0.10 in - ()
Sea Level Pressure  
Sea Level Pressure 30.13 in    
Wind  
Wind Speed 9 mph ()    
Max Wind Speed 16 mph    
Max Gust Speed -    
Visibility 10.5 miles    
Events      
T = Trace of Precipitation, MM = Missing Value Source: Averaged Metar Reports

Daily Weather History Graph

Daily Weather History Graph

Search for Another Location

Airport or City:

Trip Planner

Search our weather history database for the weather conditions in past years. The results will help you decide how hot, cold, wet, or windy it might be!

Date:

Astronomy

Mar. 11, 2014 Rise Set
Actual Time 5:57 AM CAT 6:13 PM CAT
Civil Twilight 5:35 AM CAT 6:35 PM CAT
Nautical Twilight 5:09 AM CAT 7:00 PM CAT
Astronomical Twilight 4:44 AM CAT 7:26 PM CAT
Moon 2:37 PM CAT (3/11) 1:27 AM CAT (3/11)
Length of Visible Light 12h 59m
Length of Day
12h 16m
Waxing Gibbous, 76% of the Moon is Illuminated
Mar 11
Waxing Gibbous
Mar 16
Full
Mar 24
Last Quarter
Mar 30
New
Apr 7
First Quarter

Hourly Weather History & Observations

Time (CAT) Temp. Heat Index Dew Point Humidity Pressure Visibility Wind Dir Wind Speed Gust Speed Precip Events Conditions
12:00 AM 66.2 °F - 62.6 °F 88% 30.15 in 6.2 mi ENE 6.9 mph - N/A   Scattered Clouds
2:00 AM 65 °F - 63 °F 90%  in 19 mi ENE 9.2 mph - -   Clear
2:00 AM 64.4 °F - 62.6 °F 94% 30.12 in - ENE 9.2 mph - N/A   Clear
5:00 AM 65 °F - 63 °F 92%  in 19 mi ENE 11.5 mph - -   Scattered Clouds
5:00 AM 64.4 °F - 62.6 °F 94% 30.15 in 6.2 mi ENE 11.5 mph - N/A   Mostly Cloudy
6:00 AM 64.4 °F - 64.4 °F 100% 30.18 in 6.2 mi ENE 8.1 mph - N/A   Mostly Cloudy
7:00 AM 66.2 °F - 64.4 °F 94% 30.18 in 6.2 mi ENE 9.2 mph - N/A   Mostly Cloudy
8:00 AM 69 °F - 64 °F 80%  in 19 mi ENE 11.5 mph - -   Mostly Cloudy
8:00 AM 69.8 °F - 64.4 °F 83% 30.18 in 6.2 mi ENE 11.5 mph - N/A   Mostly Cloudy
9:00 AM 71.6 °F - 69.8 °F 94% 30.04 in 6.2 mi East 4.6 mph - N/A   Mostly Cloudy
10:00 AM 75.2 °F - 60.8 °F 61% 30.18 in 6.2 mi NE 16.1 mph - N/A   Mostly Cloudy
11:00 AM 76 °F - 62 °F 53%  in 19 mi NE 15.0 mph - -   Mostly Cloudy
11:00 AM 77.0 °F - 62.6 °F 61% 30.18 in 6.2 mi NE 15.0 mph - N/A   Mostly Cloudy
12:00 PM 78.8 °F - 60.8 °F 54% 30.15 in 6.2 mi NE 15.0 mph - N/A   Mostly Cloudy
1:00 PM 77.0 °F - 60.8 °F 57% 30.12 in 6.2 mi NE 12.7 mph - N/A   Mostly Cloudy
2:00 PM 81 °F - 61 °F 40%  in 19 mi NE 13.8 mph - -   Mostly Cloudy
2:00 PM 80.6 °F 81.5 °F 60.8 °F 51% 30.09 in 6.2 mi NE 13.8 mph - N/A   Mostly Cloudy
3:00 PM 80.6 °F 80.8 °F 57.2 °F 45% 30.09 in 6.2 mi NE 13.8 mph - N/A   Mostly Cloudy
4:00 PM 80.6 °F 80.5 °F 55.4 °F 42% 30.09 in 6.2 mi NE 11.5 mph - N/A   Mostly Cloudy
5:00 PM 79 °F - 58 °F 38%  in 19 mi NE 11.5 mph - -   Scattered Clouds
5:00 PM 78.8 °F - 57.2 °F 47% 30.06 in 6.2 mi NE 11.5 mph - N/A   Mostly Cloudy
7:00 PM 71.6 °F - 59.0 °F 64% 30.09 in 6.2 mi NE 8.1 mph - N/A   Scattered Clouds
8:00 PM 70 °F - 59 °F 59%  in 19 mi NE 9.2 mph - -   Scattered Clouds
8:00 PM 69.8 °F - 59.0 °F 68% 30.12 in 6.2 mi NE 9.2 mph - N/A   Scattered Clouds
9:00 PM 69.8 °F - 59.0 °F 68% 30.15 in - NE 10.4 mph - N/A   Clear
11:00 PM 68 °F - 62 °F 74%  in 19 mi NE 9.2 mph - -  
11:00 PM 68.0 °F - 62.6 °F 83% 30.18 in - NE 9.2 mph - N/A   Clear